| time (UTC) | temp F | wind direction | speed MPH | gust MPH | rain 1hr in | rain 24hr in | rain mn in | humidity % | barometer mb |
| 20260507221513 | 59 | 270 | 3.0 | 8.0 | 0.00 | 0.03 | 0.01 | 32 | 1005.2 |
| 20260507221002 | 59 | 294 | 3.0 | 8.0 | 0.00 | 0.04 | 0.01 | 33 | 1005.1 |
| 20260507220506 | 59 | 185 | 2.0 | 6.0 | 0.00 | 0.04 | 0.01 | 31 | 1005.1 |
| 20260507215507 | 59 | 265 | 2.0 | 8.0 | 0.00 | 0.04 | 0.01 | 32 | 1005.0 |
| 20260507215005 | 59 | 288 | 2.0 | 8.0 | 0.00 | 0.04 | 0.01 | 30 | 1005.0 |
| 20260507214519 | 60 | 275 | 1.0 | 8.0 | 0.00 | 0.04 | 0.01 | 32 | 1005.0 |
| 20260507214004 | 60 | 280 | 2.0 | 10.0 | 0.00 | 0.05 | 0.01 | 31 | 1005.0 |
| 20260507213504 | 60 | 273 | 3.0 | 10.0 | 0.00 | 0.06 | 0.01 | 30 | 1005.0 |
| 20260507213016 | 60 | 306 | 3.0 | 7.0 | 0.00 | 0.06 | 0.01 | 33 | 1005.0 |
| 20260507212505 | 60 | 298 | 1.0 | 9.0 | 0.00 | 0.07 | 0.01 | 32 | 1005.0 |
| 20260507212006 | 60 | 285 | 2.0 | 9.0 | 0.00 | 0.07 | 0.01 | 32 | 1005.1 |
| 20260507211514 | 60 | 301 | 2.0 | 9.0 | 0.00 | 0.08 | 0.01 | 33 | 1005.0 |
| 20260507210505 | 60 | 256 | 3.0 | 6.0 | 0.00 | 0.08 | 0.01 | 33 | 1005.0 |
| 20260507205508 | 60 | 265 | 2.0 | 9.0 | 0.00 | 0.09 | 0.01 | 30 | 1004.9 |
| 20260507205002 | 61 | 289 | 3.0 | 9.0 | 0.00 | 0.09 | 0.01 | 31 | 1005.1 |
| 20260507204518 | 60 | 291 | 2.0 | 8.0 | 0.00 | 0.09 | 0.01 | 32 | 1005.0 |
| 20260507204006 | 60 | 289 | 3.0 | 8.0 | 0.00 | 0.10 | 0.01 | 33 | 1004.9 |
| 20260507203507 | 60 | 304 | 1.0 | 5.0 | 0.00 | 0.10 | 0.01 | 35 | 1004.9 |
| 20260507203010 | 59 | 273 | 1.0 | 8.0 | 0.00 | 0.11 | 0.01 | 33 | 1004.9 |
| 20260507202504 | 60 | 294 | 4.0 | 8.0 | 0.00 | 0.12 | 0.01 | 32 | 1004.9 |
| 20260507202006 | 60 | 282 | 3.0 | 7.0 | 0.00 | 0.12 | 0.01 | 31 | 1004.9 |
| 20260507201513 | 60 | 286 | 2.0 | 10.0 | 0.00 | 0.13 | 0.01 | 33 | 1004.9 |
| 20260507201005 | 60 | 263 | 2.0 | 10.0 | 0.00 | 0.14 | 0.01 | 33 | 1004.9 |
| 20260507195503 | 61 | 290 | 1.0 | 10.0 | 0.00 | 0.16 | 0.01 | 34 | 1005.0 |
| 20260507194006 | 60 | 284 | 1.0 | 10.0 | 0.00 | 0.16 | 0.01 | 34 | 1005.2 |
| 20260507193509 | 60 | 299 | 3.0 | 10.0 | 0.00 | 0.16 | 0.01 | 34 | 1005.2 |
| 20260507193018 | 60 | 269 | 1.0 | 6.0 | 0.00 | 0.17 | 0.01 | 37 | 1005.2 |
| 20260507192505 | 60 | 323 | 1.0 | 4.0 | 0.00 | 0.17 | 0.01 | 34 | 1005.2 |
| 20260507192004 | 60 | 278 | 1.0 | 7.0 | 0.00 | 0.17 | 0.01 | 37 | 1005.3 |
| 20260507191514 | 60 | 288 | 4.0 | 7.0 | 0.00 | 0.18 | 0.01 | 33 | 1005.3 |
| 20260507191007 | 60 | 282 | 1.0 | 6.0 | 0.00 | 0.18 | 0.01 | 36 | 1005.3 |
| 20260507190508 | 59 | 294 | 1.0 | 6.0 | 0.00 | 0.19 | 0.01 | 36 | 1005.4 |
| 20260507190018 | 58 | 271 | 1.0 | 8.0 | 0.00 | 0.20 | 0.01 | 36 | 1005.6 |
| 20260507185007 | 60 | 298 | 5.0 | 11.0 | 0.00 | 0.22 | 0.01 | 35 | 1005.6 |
| 20260507184007 | 60 | 281 | 2.0 | 12.0 | 0.00 | 0.25 | 0.01 | 35 | 1005.6 |
| 20260507183506 | 61 | 281 | 5.0 | 12.0 | 0.00 | 0.26 | 0.01 | 35 | 1005.6 |
| 20260507182508 | 62 | 265 | 1.0 | 8.0 | 0.00 | 0.28 | 0.01 | 36 | 1005.7 |
| 20260507182011 | 60 | 313 | 2.0 | 8.0 | 0.00 | 0.28 | 0.01 | 34 | 1005.7 |
| 20260507181520 | 61 | 156 | 2.0 | 7.0 | 0.00 | 0.29 | 0.01 | 33 | 1005.7 |
| 20260507181006 | 61 | 261 | 2.0 | 7.0 | 0.00 | 0.30 | 0.01 | 33 | 1005.6 |
| 20260507180504 | 60 | 288 | 2.0 | 7.0 | 0.00 | 0.34 | 0.01 | 36 | 1005.6 |
| 20260507180016 | 60 | 296 | 2.0 | 9.0 | 0.00 | 0.38 | 0.01 | 35 | 1005.5 |
| 20260507175503 | 61 | 281 | 3.0 | 9.0 | 0.00 | 0.38 | 0.01 | 34 | 1005.5 |
| 20260507175009 | 62 | 263 | 3.0 | 13.0 | 0.00 | 0.38 | 0.01 | 36 | 1005.4 |
| 20260507174519 | 62 | 296 | 4.0 | 13.0 | 0.00 | 0.38 | 0.01 | 32 | 1005.4 |
| 20260507172507 | 61 | 267 | 4.0 | 9.0 | 0.00 | 0.38 | 0.01 | 35 | 1005.6 |
| 20260507172007 | 61 | 265 | 4.0 | 7.0 | 0.00 | 0.38 | 0.01 | 36 | 1005.6 |
| 20260507171522 | 60 | 263 | 2.0 | 9.0 | 0.00 | 0.38 | 0.01 | 39 | 1005.7 |
| 20260507171007 | 61 | 290 | 6.0 | 9.0 | 0.00 | 0.38 | 0.01 | 39 | 1005.6 |
| 20260507170507 | 60 | 276 | 2.0 | 10.0 | 0.00 | 0.38 | 0.01 | 38 | 1005.7 |
| 20260507170013 | 60 | 275 | 6.0 | 10.0 | 0.00 | 0.38 | 0.01 | 37 | 1005.7 |
| 20260507165506 | 60 | 302 | 2.0 | 14.0 | 0.00 | 0.38 | 0.01 | 39 | 1005.8 |
| 20260507165006 | 60 | 229 | 4.0 | 14.0 | 0.00 | 0.38 | 0.01 | 38 | 1006.0 |
| 20260507164522 | 59 | 294 | 1.0 | 8.0 | 0.00 | 0.38 | 0.01 | 42 | 1005.9 |
| 20260507164009 | 58 | 245 | 2.0 | 8.0 | 0.00 | 0.38 | 0.01 | 45 | 1006.1 |
| 20260507163018 | 58 | 274 | 4.0 | 10.0 | 0.00 | 0.38 | 0.01 | 46 | 1006.3 |
| 20260507162507 | 60 | 289 | 2.0 | 7.0 | 0.00 | 0.38 | 0.01 | 47 | 1006.2 |
| 20260507161006 | 59 | 286 | 2.0 | 10.0 | 0.00 | 0.38 | 0.01 | 50 | 1006.2 |
| 20260507160508 | 59 | 294 | 1.0 | 14.0 | 0.00 | 0.38 | 0.01 | 55 | 1006.4 |
| 20260507160022 | 57 | 281 | 2.0 | 14.0 | 0.00 | 0.38 | 0.01 | 55 | 1006.5 |
| 20260507155508 | 57 | 331 | 4.0 | 14.0 | 0.00 | 0.38 | 0.01 | 54 | 1006.6 |
| 20260507155004 | 57 | 286 | 5.0 | 9.0 | 0.00 | 0.38 | 0.01 | 54 | 1006.7 |
| 20260507154516 | 57 | 279 | 3.0 | 8.0 | 0.00 | 0.38 | 0.01 | 55 | 1006.8 |
| 20260507153502 | 57 | 281 | 3.0 | 7.0 | 0.00 | 0.38 | 0.01 | 54 | 1006.9 |
| 20260507153006 | 56 | 288 | 1.0 | 4.0 | 0.01 | 0.38 | 0.01 | 54 | 1006.9 |
| 20260507152504 | 56 | 266 | 2.0 | 7.0 | 0.01 | 0.38 | 0.01 | 54 | 1007.0 |
| 20260507152005 | 56 | 294 | 2.0 | 8.0 | 0.01 | 0.38 | 0.01 | 53 | 1007.2 |
| 20260507151508 | 57 | 294 | 4.0 | 8.0 | 0.01 | 0.38 | 0.01 | 54 | 1007.2 |
| 20260507151004 | 57 | 226 | 2.0 | 15.0 | 0.01 | 0.38 | 0.01 | 60 | 1007.3 |
| 20260507150507 | 58 | 290 | 3.0 | 15.0 | 0.01 | 0.38 | 0.01 | 54 | 1007.3 |
| 20260507150012 | 58 | 313 | 4.0 | 15.0 | 0.01 | 0.38 | 0.01 | 52 | 1007.2 |
| 20260507145504 | 58 | 257 | 2.0 | 7.0 | 0.01 | 0.38 | 0.01 | 52 | 1007.2 |
| 20260507145003 | 57 | 271 | 2.0 | 7.0 | 0.01 | 0.38 | 0.01 | 55 | 1007.2 |
| 20260507144516 | 57 | 254 | 2.0 | 11.0 | 0.01 | 0.38 | 0.01 | 56 | 1007.2 |
| 20260507144004 | 56 | 286 | 3.0 | 11.0 | 0.01 | 0.38 | 0.01 | 58 | 1007.2 |
| 20260507143503 | 56 | 273 | 1.0 | 5.0 | 0.01 | 0.38 | 0.01 | 61 | 1007.1 |
| 20260507142503 | 56 | 265 | 2.0 | 7.0 | 0.00 | 0.37 | 0.00 | 60 | 1007.0 |
| 20260507142007 | 56 | 302 | 3.0 | 10.0 | 0.00 | 0.37 | 0.00 | 58 | 1007.0 |
| 20260507141504 | 56 | 292 | 1.0 | 10.0 | 0.00 | 0.37 | 0.00 | 57 | 1007.1 |
| 20260507140504 | 55 | 261 | 3.0 | 9.0 | 0.00 | 0.37 | 0.00 | 59 | 1007.1 |
| 20260507140009 | 55 | 307 | 2.0 | 9.0 | 0.00 | 0.37 | 0.00 | 59 | 1007.0 |
| 20260507135505 | 55 | 273 | 2.0 | 5.0 | 0.00 | 0.37 | 0.00 | 58 | 1006.9 |
| 20260507135003 | 55 | 292 | 2.0 | 4.0 | 0.00 | 0.37 | 0.00 | 61 | 1007.0 |
| 20260507134514 | 55 | 282 | 1.0 | 6.0 | 0.00 | 0.37 | 0.00 | 59 | 1007.0 |
| 20260507134007 | 55 | 300 | 1.0 | 6.0 | 0.00 | 0.37 | 0.00 | 59 | 1007.2 |
| 20260507133504 | 54 | 307 | 0.0 | 6.0 | 0.00 | 0.37 | 0.00 | 62 | 1007.3 |
| 20260507133015 | 54 | 259 | 2.0 | 4.0 | 0.00 | 0.37 | 0.00 | 60 | 1007.3 |
| 20260507132503 | 54 | 281 | 1.0 | 4.0 | 0.00 | 0.37 | 0.00 | 62 | 1007.4 |
| 20260507131506 | 53 | 285 | 1.0 | 6.0 | 0.00 | 0.37 | 0.00 | 61 | 1007.4 |
| 20260507131003 | 53 | 296 | 2.0 | 6.0 | 0.00 | 0.37 | 0.00 | 61 | 1007.3 |
| 20260507130006 | 52 | 275 | 1.0 | 7.0 | 0.00 | 0.37 | 0.00 | 64 | 1007.3 |
| 20260507125504 | 52 | 342 | 0.0 | 7.0 | 0.00 | 0.37 | 0.00 | 65 | 1007.4 |
| 20260507125005 | 52 | 286 | 0.0 | 4.0 | 0.00 | 0.37 | 0.00 | 66 | 1007.4 |
| 20260507124511 | 51 | 289 | 2.0 | 5.0 | 0.00 | 0.37 | 0.00 | 66 | 1007.5 |
| 20260507124006 | 51 | 277 | 1.0 | 7.0 | 0.00 | 0.37 | 0.00 | 68 | 1007.5 |
| 20260507123506 | 51 | 275 | 2.0 | 7.0 | 0.00 | 0.37 | 0.00 | 68 | 1007.6 |
| 20260507123018 | 51 | 276 | 2.0 | 9.0 | 0.00 | 0.37 | 0.00 | 69 | 1007.6 |
| 20260507122504 | 51 | 274 | 2.0 | 9.0 | 0.00 | 0.37 | 0.00 | 70 | 1007.7 |
| 20260507122011 | 50 | 279 | 2.0 | 7.0 | 0.00 | 0.37 | 0.00 | 72 | 1007.6 |
| 20260507121518 | 50 | 297 | 1.0 | 7.0 | 0.00 | 0.37 | 0.00 | 75 | 1007.6 |
| 20260507120007 | 49 | 272 | 1.0 | 3.0 | 0.00 | 0.37 | 0.00 | 78 | 1007.6 |
| 20260507115503 | 48 | 277 | 2.0 | 3.0 | 0.00 | 0.37 | 0.00 | 80 | 1007.6 |
| 20260507115008 | 48 | 288 | 1.0 | 3.0 | 0.00 | 0.37 | 0.00 | 81 | 1007.6 |
| 20260507114509 | 47 | 289 | 0.0 | 3.0 | 0.00 | 0.37 | 0.00 | 84 | 1007.6 |
| 20260507114003 | 47 | 281 | 1.0 | 3.0 | 0.00 | 0.37 | 0.00 | 83 | 1007.6 |
| 20260507113506 | 47 | 277 | 0.0 | 2.0 | 0.00 | 0.37 | 0.00 | 84 | 1007.6 |
| 20260507113014 | 47 | 277 | 0.0 | 2.0 | 0.00 | 0.37 | 0.00 | 84 | 1007.7 |
| 20260507112511 | 47 | 277 | 0.0 | 2.0 | 0.00 | 0.37 | 0.00 | 84 | 1007.7 |
| 20260507112008 | 47 | 277 | 0.0 | 2.0 | 0.00 | 0.37 | 0.00 | 83 | 1007.5 |
| 20260507111533 | 47 | 277 | 0.0 | 2.0 | 0.00 | 0.37 | 0.00 | 83 | 1007.3 |
| 20260507111008 | 47 | 277 | 0.0 | 2.0 | 0.00 | 0.37 | 0.00 | 83 | 1007.4 |
| 20260507110512 | 47 | 272 | 0.0 | 2.0 | 0.00 | 0.37 | 0.00 | 84 | 1007.3 |
| 20260507110022 | 47 | 327 | 0.0 | 3.0 | 0.00 | 0.37 | 0.00 | 83 | 1007.3 |
| 20260507105505 | 47 | 290 | 0.0 | 3.0 | 0.00 | 0.37 | 0.00 | 84 | 1007.3 |
| 20260507105003 | 47 | 292 | 1.0 | 3.0 | 0.00 | 0.37 | 0.00 | 84 | 1007.4 |
| 20260507104509 | 47 | 271 | 1.0 | 3.0 | 0.00 | 0.37 | 0.00 | 87 | 1007.3 |
| 20260507104006 | 47 | 288 | 0.0 | 2.0 | 0.00 | 0.37 | 0.00 | 87 | 1007.3 |
| 20260507103503 | 47 | 289 | 0.0 | 2.0 | 0.00 | 0.37 | 0.00 | 86 | 1007.2 |
| 20260507103017 | 47 | 289 | 0.0 | 2.0 | 0.00 | 0.37 | 0.00 | 86 | 1007.4 |
| 20260507102507 | 47 | 290 | 0.0 | 2.0 | 0.00 | 0.37 | 0.00 | 85 | 1007.3 |
| 20260507102008 | 47 | 279 | 0.0 | 3.0 | 0.00 | 0.37 | 0.00 | 86 | 1007.2 |
| 20260507101520 | 47 | 279 | 1.0 | 3.0 | 0.00 | 0.37 | 0.00 | 86 | 1007.2 |
| 20260507101004 | 47 | 287 | 0.0 | 2.0 | 0.00 | 0.37 | 0.00 | 86 | 1007.5 |
| 20260507100507 | 47 | 287 | 0.0 | 2.0 | 0.00 | 0.37 | 0.00 | 86 | 1007.5 |
| 20260507100025 | 47 | 277 | 0.0 | 3.0 | 0.00 | 0.37 | 0.00 | 86 | 1007.3 |
| 20260507095505 | 47 | 276 | 2.0 | 3.0 | 0.00 | 0.37 | 0.00 | 85 | 1007.3 |
| 20260507095011 | 47 | 286 | 0.0 | 2.0 | 0.00 | 0.37 | 0.00 | 86 | 1007.4 |
| 20260507094535 | 47 | 286 | 0.0 | 2.0 | 0.00 | 0.37 | 0.00 | 86 | 1007.2 |
| 20260507094007 | 47 | 281 | 0.0 | 2.0 | 0.00 | 0.37 | 0.00 | 86 | 1007.2 |
| 20260507093503 | 47 | 284 | 0.0 | 4.0 | 0.00 | 0.37 | 0.00 | 85 | 1007.1 |
| 20260507093017 | 47 | 284 | 1.0 | 4.0 | 0.00 | 0.37 | 0.00 | 85 | 1007.3 |
| 20260507092504 | 47 | 290 | 1.0 | 3.0 | 0.00 | 0.37 | 0.00 | 86 | 1007.3 |
| 20260507092006 | 47 | 288 | 1.0 | 2.0 | 0.00 | 0.37 | 0.00 | 86 | 1007.3 |
| 20260507091526 | 47 | 288 | 1.0 | 2.0 | 0.00 | 0.37 | 0.00 | 86 | 1007.0 |
| 20260507091009 | 47 | 277 | 0.0 | 3.0 | 0.00 | 0.37 | 0.00 | 86 | 1007.1 |
| 20260507090504 | 47 | 279 | 0.0 | 3.0 | 0.00 | 0.37 | 0.00 | 85 | 1007.4 |
| 20260507090032 | 47 | 272 | 0.0 | 7.0 | 0.00 | 0.37 | 0.00 | 86 | 1007.1 |
| 20260507085508 | 47 | 266 | 2.0 | 5.0 | 0.00 | 0.37 | 0.00 | 86 | 1006.6 |
| 20260507085009 | 47 | 288 | 1.0 | 4.0 | 0.00 | 0.37 | 0.00 | 86 | 1006.7 |
| 20260507084533 | 47 | 246 | 2.0 | 8.0 | 0.00 | 0.37 | 0.00 | 86 | 1006.6 |
| 20260507084007 | 48 | 281 | 1.0 | 8.0 | 0.00 | 0.37 | 0.00 | 87 | 1006.9 |
| 20260507082503 | 48 | 297 | 1.0 | 7.0 | 0.00 | 0.37 | 0.00 | 86 | 1006.5 |
| 20260507082005 | 48 | 282 | 2.0 | 7.0 | 0.00 | 0.37 | 0.00 | 85 | 1006.4 |
| 20260507081521 | 48 | 286 | 1.0 | 3.0 | 0.00 | 0.37 | 0.00 | 86 | 1006.5 |
| 20260507081006 | 48 | 286 | 0.0 | 3.0 | 0.00 | 0.37 | 0.00 | 87 | 1006.8 |
| 20260507080506 | 48 | 286 | 1.0 | 3.0 | 0.00 | 0.37 | 0.00 | 85 | 1007.0 |
| 20260507080019 | 48 | 281 | 1.0 | 3.0 | 0.00 | 0.37 | 0.00 | 85 | 1006.8 |
| 20260507075508 | 48 | 278 | 1.0 | 3.0 | 0.00 | 0.37 | 0.00 | 86 | 1006.8 |
| 20260507075011 | 48 | 275 | 1.0 | 3.0 | 0.00 | 0.37 | 0.00 | 86 | 1006.7 |
| 20260507074522 | 48 | 279 | 1.0 | 7.0 | 0.00 | 0.37 | 0.00 | 86 | 1006.4 |
| 20260507074009 | 48 | 281 | 0.0 | 7.0 | 0.00 | 0.37 | 0.00 | 86 | 1006.2 |
| 20260507073507 | 48 | 306 | 2.0 | 7.0 | 0.00 | 0.37 | 0.00 | 86 | 1006.4 |
| 20260507073027 | 48 | 289 | 1.0 | 5.0 | 0.00 | 0.37 | 0.00 | 86 | 1006.6 |
| 20260507072509 | 49 | 305 | 0.0 | 8.0 | 0.00 | 0.37 | 0.00 | 86 | 1006.2 |
| 20260507072008 | 49 | 289 | 1.0 | 8.0 | 0.00 | 0.37 | 0.00 | 86 | 1006.4 |
| 20260507071512 | 49 | 305 | 2.0 | 8.0 | 0.00 | 0.37 | 0.00 | 87 | 1006.4 |
| 20260507071008 | 49 | 285 | 1.0 | 6.0 | 0.00 | 0.37 | 0.00 | 88 | 1006.0 |
| 20260507070504 | 49 | 286 | 0.0 | 9.0 | 0.00 | 0.37 | 0.00 | 88 | 1006.0 |
| 20260507070020 | 49 | 291 | 1.0 | 10.0 | 0.00 | 0.37 | 0.00 | 87 | 1006.0 |
| 20260507065507 | 49 | 286 | 4.0 | 10.0 | 0.00 | 0.37 | 0.00 | 87 | 1006.2 |
| 20260507065007 | 49 | 279 | 2.0 | 4.0 | 0.00 | 0.37 | 0.00 | 88 | 1006.1 |
| 20260507064525 | 49 | 273 | 2.0 | 7.0 | 0.00 | 0.37 | 0.00 | 88 | 1006.0 |
| 20260507064009 | 49 | 282 | 3.0 | 7.0 | 0.00 | 0.37 | 0.00 | 88 | 1006.0 |
| 20260507063510 | 49 | 280 | 3.0 | 5.0 | 0.00 | 0.37 | 0.00 | 88 | 1005.8 |
| 20260507063026 | 49 | 276 | 2.0 | 5.0 | 0.00 | 0.37 | 0.00 | 88 | 1005.9 |
| 20260507062510 | 49 | 288 | 2.0 | 4.0 | 0.00 | 0.37 | 0.00 | 89 | 1005.9 |
| 20260507061525 | 49 | 281 | 3.0 | 7.0 | 0.00 | 0.37 | 0.00 | 90 | 1006.1 |
| 20260507061010 | 49 | 271 | 1.0 | 4.0 | 0.00 | 0.37 | 0.00 | 90 | 1006.2 |
| 20260507060507 | 49 | 271 | 2.0 | 4.0 | 0.00 | 0.37 | 0.00 | 91 | 1006.2 |
| 20260507060016 | 50 | 270 | 2.0 | 3.0 | 0.00 | 0.37 | 0.00 | 90 | 1006.1 |
| 20260507055510 | 50 | 275 | 1.0 | 3.0 | 0.00 | 0.37 | 0.00 | 90 | 1006.0 |
| 20260507055005 | 50 | 277 | 1.0 | 3.0 | 0.00 | 0.37 | 0.00 | 90 | 1006.0 |
| 20260507054518 | 50 | 278 | 1.0 | 3.0 | 0.00 | 0.37 | 0.00 | 90 | 1006.0 |
| 20260507054007 | 50 | 275 | 1.0 | 3.0 | 0.00 | 0.37 | 0.00 | 90 | 1006.1 |
| 20260507053513 | 50 | 269 | 1.0 | 3.0 | 0.00 | 0.37 | 0.00 | 90 | 1005.9 |
| 20260507053024 | 50 | 284 | 1.0 | 3.0 | 0.00 | 0.37 | 0.00 | 91 | 1006.1 |
| 20260507052510 | 50 | 277 | 2.0 | 3.0 | 0.00 | 0.37 | 0.00 | 91 | 1006.2 |
| 20260507052013 | 51 | 281 | 1.0 | 3.0 | 0.00 | 0.37 | 0.00 | 91 | 1006.1 |
| 20260507051511 | 51 | 281 | 1.0 | 3.0 | 0.00 | 0.37 | 0.00 | 91 | 1006.1 |
| 20260507051002 | 51 | 290 | 1.0 | 4.0 | 0.00 | 0.37 | 0.00 | 90 | 1005.9 |
| 20260507050502 | 51 | 272 | 1.0 | 4.0 | 0.00 | 0.37 | 0.00 | 90 | 1005.9 |
| 20260507050010 | 51 | 277 | 1.0 | 2.0 | 0.00 | 0.37 | 0.00 | 91 | 1005.9 |
| 20260507045506 | 51 | 275 | 0.0 | 2.0 | 0.00 | 0.37 | 0.00 | 91 | 1006.2 |
| 20260507045006 | 51 | 284 | 0.0 | 2.0 | 0.00 | 0.37 | 0.00 | 91 | 1006.2 |
| 20260507044538 | 51 | 284 | 1.0 | 2.0 | 0.00 | 0.37 | 0.00 | 92 | 1006.3 |
| 20260507044007 | 52 | 259 | 0.0 | 3.0 | 0.00 | 0.37 | 0.00 | 92 | 1006.2 |
| 20260507043502 | 52 | 259 | 0.0 | 3.0 | 0.00 | 0.37 | 0.00 | 92 | 1006.1 |
| 20260507043004 | 52 | 290 | 1.0 | 4.0 | 0.00 | 0.37 | 0.00 | 92 | 1005.9 |
| 20260507042504 | 52 | 296 | 0.0 | 4.0 | 0.00 | 0.37 | 0.00 | 92 | 1005.9 |
| 20260507042002 | 52 | 277 | 0.0 | 2.0 | 0.00 | 0.37 | 0.00 | 92 | 1005.8 |
| 20260507041510 | 52 | 277 | 1.0 | 3.0 | 0.00 | 0.37 | 0.00 | 92 | 1005.9 |
| 20260507041002 | 52 | 277 | 1.0 | 3.0 | 0.00 | 0.37 | 0.00 | 92 | 1005.9 |
| 20260507040504 | 53 | 282 | 0.0 | 2.0 | 0.00 | 0.37 | 0.00 | 92 | 1005.8 |
| 20260507040014 | 53 | 288 | 0.0 | 2.0 | 0.00 | 0.37 | 0.00 | 92 | 1005.6 |
| 20260507035504 | 53 | 286 | 0.0 | 3.0 | 0.00 | 0.37 | 0.37 | 92 | 1005.6 |
| 20260507035007 | 53 | 286 | 1.0 | 3.0 | 0.00 | 0.37 | 0.37 | 92 | 1005.6 |
| 20260507034516 | 53 | 287 | 1.0 | 6.0 | 0.00 | 0.37 | 0.37 | 91 | 1005.6 |
| 20260507034007 | 54 | 292 | 1.0 | 6.0 | 0.00 | 0.37 | 0.37 | 91 | 1005.6 |
| 20260507033508 | 54 | 279 | 1.0 | 3.0 | 0.00 | 0.37 | 0.37 | 91 | 1005.5 |
| 20260507033020 | 54 | 277 | 1.0 | 4.0 | 0.00 | 0.37 | 0.37 | 91 | 1005.5 |
| 20260507032509 | 55 | 275 | 1.0 | 4.0 | 0.01 | 0.37 | 0.37 | 91 | 1005.6 |
| 20260507032003 | 55 | 275 | 2.0 | 5.0 | 0.02 | 0.37 | 0.37 | 91 | 1005.7 |
| 20260507031508 | 55 | 270 | 3.0 | 8.0 | 0.02 | 0.37 | 0.37 | 91 | 1005.5 |
| 20260507031004 | 56 | 270 | 3.0 | 8.0 | 0.02 | 0.37 | 0.37 | 92 | 1005.5 |
| 20260507030503 | 56 | 274 | 2.0 | 8.0 | 0.02 | 0.37 | 0.37 | 92 | 1005.5 |
| 20260507030012 | 57 | 286 | 2.0 | 8.0 | 0.02 | 0.37 | 0.37 | 93 | 1005.5 |
| 20260507025502 | 57 | 270 | 2.0 | 4.0 | 0.02 | 0.37 | 0.37 | 93 | 1005.5 |
| 20260507025006 | 58 | 294 | 2.0 | 4.0 | 0.02 | 0.37 | 0.37 | 94 | 1005.3 |
| 20260507024515 | 58 | 285 | 1.0 | 4.0 | 0.02 | 0.37 | 0.37 | 94 | 1005.1 |
| 20260507024006 | 59 | 280 | 2.0 | 3.0 | 0.02 | 0.37 | 0.37 | 94 | 1005.1 |
| 20260507023506 | 59 | 282 | 1.0 | 2.0 | 0.02 | 0.37 | 0.37 | 94 | 1005.0 |
| 20260507023017 | 59 | 232 | 0.0 | 2.0 | 0.02 | 0.37 | 0.37 | 94 | 1004.9 |
| 20260507022507 | 59 | 214 | 0.0 | 2.0 | 0.01 | 0.36 | 0.36 | 94 | 1004.9 |
| 20260507022009 | 59 | 213 | 0.0 | 2.0 | 0.00 | 0.35 | 0.35 | 94 | 1004.9 |
| 20260507021528 | 59 | 214 | 0.0 | 2.0 | 0.00 | 0.35 | 0.35 | 94 | 1004.8 |
| 20260507021005 | 59 | 215 | 0.0 | 2.0 | 0.00 | 0.35 | 0.35 | 94 | 1004.9 |
| 20260507020505 | 59 | 215 | 0.0 | 2.0 | 0.00 | 0.35 | 0.35 | 94 | 1005.0 |
| 20260507020010 | 59 | 215 | 0.0 | 2.0 | 0.00 | 0.35 | 0.35 | 94 | 1005.0 |
| 20260507015502 | 59 | 181 | 0.0 | 2.0 | 0.00 | 0.35 | 0.35 | 94 | 1005.0 |
| 20260507015005 | 59 | 170 | 0.0 | 2.0 | 0.00 | 0.35 | 0.35 | 94 | 1005.0 |
| 20260507014512 | 59 | 190 | 0.0 | 2.0 | 0.00 | 0.35 | 0.35 | 94 | 1005.1 |
| 20260507014006 | 59 | 199 | 1.0 | 2.0 | 0.00 | 0.35 | 0.35 | 94 | 1005.1 |
| 20260507013505 | 59 | 130 | 1.0 | 3.0 | 0.00 | 0.35 | 0.35 | 94 | 1005.2 |
| 20260507013019 | 59 | 198 | 1.0 | 3.0 | 0.00 | 0.35 | 0.35 | 94 | 1005.2 |
| 20260507012508 | 59 | 195 | 0.0 | 2.0 | 0.00 | 0.35 | 0.35 | 94 | 1005.1 |
| 20260507012008 | 59 | 192 | 0.0 | 2.0 | 0.00 | 0.35 | 0.35 | 94 | 1005.1 |
| 20260507011524 | 59 | 178 | 0.0 | 2.0 | 0.00 | 0.35 | 0.35 | 94 | 1005.2 |
| 20260507011012 | 59 | 178 | 0.0 | 2.0 | 0.00 | 0.35 | 0.35 | 94 | 1005.2 |
| 20260507010509 | 59 | 184 | 0.0 | 2.0 | 0.00 | 0.35 | 0.35 | 94 | 1005.2 |
| 20260507010006 | 59 | 170 | 0.0 | 2.0 | 0.00 | 0.35 | 0.35 | 94 | 1005.2 |
| 20260507005503 | 59 | 175 | 0.0 | 2.0 | 0.00 | 0.35 | 0.35 | 94 | 1005.2 |
| 20260507005006 | 59 | 183 | 0.0 | 2.0 | 0.00 | 0.35 | 0.35 | 94 | 1005.1 |
| 20260507004511 | 59 | 208 | 0.0 | 2.0 | 0.00 | 0.35 | 0.35 | 94 | 1005.2 |
| 20260507004005 | 59 | 178 | 0.0 | 3.0 | 0.00 | 0.35 | 0.35 | 94 | 1005.2 |
| 20260507003502 | 59 | 214 | 1.0 | 3.0 | 0.00 | 0.35 | 0.35 | 94 | 1005.2 |
| 20260507003026 | 59 | 167 | 1.0 | 2.0 | 0.00 | 0.35 | 0.35 | 94 | 1005.1 |
| 20260507002506 | 59 | 194 | 0.0 | 3.0 | 0.00 | 0.35 | 0.35 | 94 | 1005.1 |
| 20260507002007 | 59 | 193 | 1.0 | 3.0 | 0.00 | 0.35 | 0.35 | 94 | 1005.0 |
| 20260507001534 | 59 | 180 | 1.0 | 2.0 | 0.00 | 0.35 | 0.35 | 94 | 1004.8 |
| 20260507001007 | 59 | 196 | 0.0 | 3.0 | 0.00 | 0.35 | 0.35 | 93 | 1004.8 |
| 20260507000508 | 59 | 200 | 1.0 | 3.0 | 0.00 | 0.35 | 0.35 | 93 | 1004.9 |
| 20260507000022 | 59 | 175 | 1.0 | 3.0 | 0.00 | 0.35 | 0.35 | 93 | 1004.9 |
| 20260506235507 | 59 | 175 | 1.0 | 3.0 | 0.00 | 0.35 | 0.35 | 93 | 1004.8 |
| 20260506235003 | 59 | 146 | 1.0 | 3.0 | 0.00 | 0.35 | 0.35 | 93 | 1004.8 |
| 20260506234509 | 59 | 176 | 1.0 | 3.0 | 0.00 | 0.35 | 0.35 | 93 | 1004.8 |
| 20260506234005 | 59 | 186 | 1.0 | 3.0 | 0.00 | 0.35 | 0.35 | 93 | 1004.8 |
| 20260506233503 | 59 | 159 | 0.0 | 5.0 | 0.00 | 0.35 | 0.35 | 93 | 1004.8 |
| 20260506233014 | 59 | 208 | 1.0 | 5.0 | 0.00 | 0.35 | 0.35 | 93 | 1004.8 |
| 20260506232503 | 59 | 178 | 0.0 | 3.0 | 0.00 | 0.35 | 0.35 | 93 | 1004.9 |
| 20260506232008 | 59 | 194 | 1.0 | 3.0 | 0.00 | 0.35 | 0.35 | 93 | 1004.9 |
| 20260506231518 | 59 | 145 | 1.0 | 2.0 | 0.00 | 0.35 | 0.35 | 93 | 1005.0 |
| 20260506231007 | 59 | 163 | 0.0 | 2.0 | 0.01 | 0.35 | 0.35 | 93 | 1005.0 |
| 20260506230505 | 59 | 184 | 0.0 | 3.0 | 0.01 | 0.35 | 0.35 | 93 | 1005.0 |
| 20260506230023 | 59 | 175 | 1.0 | 4.0 | 0.01 | 0.35 | 0.35 | 93 | 1005.0 |
| 20260506225507 | 59 | 134 | 1.0 | 4.0 | 0.01 | 0.35 | 0.35 | 93 | 1005.0 |
| 20260506225007 | 59 | 146 | 1.0 | 4.0 | 0.01 | 0.35 | 0.35 | 93 | 1005.0 |
| 20260506224526 | 59 | 211 | 0.0 | 2.0 | 0.01 | 0.35 | 0.35 | 93 | 1005.1 |
| 20260506224007 | 59 | 173 | 1.0 | 6.0 | 0.02 | 0.35 | 0.35 | 93 | 1005.1 |
| 20260506223502 | 59 | 46 | 1.0 | 6.0 | 0.03 | 0.35 | 0.35 | 93 | 1005.2 |
| 20260506223012 | 59 | 180 | 1.0 | 4.0 | 0.03 | 0.35 | 0.35 | 93 | 1005.2 |
| 20260506222504 | 59 | 217 | 1.0 | 3.0 | 0.04 | 0.35 | 0.35 | 93 | 1005.2 |
| 20260506222008 | 60 | 206 | 0.0 | 8.0 | 0.04 | 0.35 | 0.35 | 93 | 1005.2 |